SL-14 DEB, 45469

Orbit data source: Space-Track

SL-14 DEB, 45469 is space debris in LEO originally from a launch on Thu, 15 Aug 1991 UTC launched from the Plesetsk Missile And Space Complex (PKMTR). Debris objects in space refer to the collection of defunct objects orbiting the Earth. Examples of debris include non-operational satellites, rocket bodies, and fragments generated from explosions, collisions, or faulty payload assembly.

Loading next visibility...
Identifier
45469, 1991-056CU
Orbit
LEO
Country
Flag of CISCIS
Related business
Manufacturer
Unknown
Mission
Spacecraft
Bus & Motor
Unknown
Mass
Unknown
Launch date (UTC)
1991-08-15 (35 years ago)
Launch vehicle
Unknown
Launch site
Plesetsk Missile And Space Complex (PKMTR)
Object type
Payload
Rocket body
Debris
Shape & HBR
Unknown shape, 1.1 m
Radar Cross Section
Medium (>0.1 m² and <1 m²)

Expand to show TLE details & history
Last TLE update: 2 days ago

TLE from 2 days ago
0 SL-14 DEB
1 45469U 91056CU  26236.37549722  .00000593  00000-0  98631-3 0  9994
2 45469  82.5465  20.4797 0100737  16.6628 343.7778 13.43060390314596
Epoch: 2026-08-24T09:00Z
TLE epoch observation values (Epoch: 2026-08-24T09:00:42.959Z)
Latitude
-0.00008°
Longitude
-87.3574°
Altitude
1,028.479 km
Speed
7.373 km/s
True Right ascension
01h 21m 55s
True Declination
0° 00' 00"
Sunlit
Object was in full shadow at epoch
Visualization orbit readout
Latitude
Unknown
Longitude
Unknown
Altitude
Unknown
Speed
Unknown
Apparent Right ascension
Unknown
Apparent Declination
Unknown
Sunlit
N/A
Visualization observer readout
Local Sidereal Time
19:09:41
Azimuth
Unknown
Elevation
Unknown
Doppler factor
Unknown
Orbital elements
Apogee altitude
1,170.392 km
Perigee altitude
1,019.826 km
Semi-major axis
7,473.246 km
Eccentricity
0.01007
Inclination
82.5465°
RAAN
20.4797°
Arg. of periapsis
16.6628°
True anomaly
343.45137°
Mean anomaly
343.7778°
Eccentric anomaly
343.61498°
Mean motion
3.35954 °/min
Orbital period
107.16 mins
BSTAR
0.00098631
Loading maneuver chart data...
Computing Atmospheric mass density...
Loading historical data...
Loading historical data...
Loading historical data...
Loading historical data...
Loading historical data...
Loading historical data...
Loading historical data...

Documentation

Showing up to 5 results
|